Location: Bukovany
(49.8234°N, 14.6297°E)
Time: 18:34:06
(UTC+00:00)

Cosmos 1812 - Pass Details

Date: 17 November 2025
Orbit: 340 x 350 km, 82.5° (Epoch: 10 December)

Event Time Altitude Azimuth Distance (km) Brightness Sun altitude
Rises 15:52:24 0° 141° (SE) 2,240 5.8 -6.2°
Reaches altitude 10° 15:55:34 10° 104° (ESE) 1,388 4.4 -6.7°
Maximum altitude 15:56:29 11° 86° (E) 1,325 4.2 -6.8°
Drops below altitude 10° 15:57:24 10° 68° (ENE) 1,387 4.2 -7.0°
Enters shadow 15:57:44 - 62° (ENE) 1,436 4.3 -7.0°
